IU1JVO-13 Weather Reports


Display with metric or nautical units.
time (UTC)temp
F
wind
direction
speed
MPH
gust
MPH
rain 1hr
in
rain 24hr
in
rain mn
in
humidity
%
barometer
mb
20260503215456 57 91 0.0 1.0 0.00 0.00 0.00 74 1020.1
20260503215109 57 91 0.0 1.0 0.00 0.00 0.00 74 1020.1
20260503214955 57 91 0.0 1.0 0.00 0.00 0.00 74 1020.2
20260503214458 57 91 0.0 0.0 0.00 0.00 0.00 74 1020.1
20260503214107 57 91 0.0 0.0 0.00 0.00 0.00 73 1020.2
20260503213957 57 91 0.0 0.0 0.00 0.00 0.00 73 1020.1
20260503213457 58 91 0.0 0.0 0.00 0.00 0.00 72 1020.1
20260503213106 58 91 0.0 0.0 0.00 0.00 0.00 72 1020.1
20260503212956 58 91 0.0 0.0 0.00 0.00 0.00 72 1020.1
20260503212456 58 91 0.0 0.0 0.00 0.00 0.00 72 1020.1
20260503212107 58 91 0.0 0.0 0.00 0.00 0.00 72 1020.1
20260503211958 58 91 0.0 0.0 0.00 0.00 0.00 72 1020.1
20260503211728 58 91 0.0 0.0 0.00 0.00 0.00 71 1020.1
20260503211105 58 91 0.0 0.0 0.00 0.00 0.00 71 1020.1
20260503210957 58 91 0.0 0.0 0.00 0.00 0.00 71 1020.1
20260503210456 58 91 0.0 0.0 0.00 0.00 0.00 71 1020.0
20260503210105 58 91 0.0 0.0 0.00 0.00 0.00 71 1020.0
20260503205956 58 91 0.0 0.0 0.00 0.00 0.00 72 1020.0
20260503205456 58 91 0.0 0.0 0.00 0.00 0.00 71 1020.0
20260503205105 58 91 0.0 1.0 0.00 0.00 0.00 72 1019.9
20260503204956 58 91 0.0 1.0 0.00 0.00 0.00 71 1019.8
20260503204455 58 91 0.0 1.0 0.00 0.00 0.00 71 1019.9
20260503204105 58 91 0.0 1.0 0.00 0.00 0.00 72 1019.9
20260503203957 58 91 0.0 1.0 0.00 0.00 0.00 71 1020.1
20260503203455 58 91 0.0 1.0 0.00 0.00 0.00 71 1020.0
20260503203105 58 91 0.0 1.0 0.00 0.00 0.00 71 1019.8
20260503202956 58 91 0.0 1.0 0.00 0.00 0.00 71 1019.8
20260503202455 58 91 0.0 1.0 0.00 0.00 0.00 70 1019.8
20260503202105 58 91 0.0 1.0 0.00 0.00 0.00 69 1019.8
20260503201955 58 91 0.0 1.0 0.00 0.00 0.00 70 1019.8
20260503201455 58 91 0.0 1.0 0.00 0.00 0.00 69 1019.7
20260503201105 58 91 0.0 1.0 0.00 0.00 0.00 70 1019.7
20260503200954 58 91 0.0 1.0 0.00 0.00 0.00 70 1019.7
20260503200505 59 91 0.0 1.0 0.00 0.00 0.00 69 1019.9
20260503200459 58 91 0.0 1.0 0.00 0.00 0.00 69 1019.7
20260503200217 59 91 0.0 1.0 0.00 0.00 0.00 69 1019.9
20260503195447 59 91 0.0 1.0 0.00 0.00 0.00 69 1019.8
20260503195103 59 91 0.0 1.0 0.00 0.00 0.00 69 1019.8
20260503194949 59 91 0.0 1.0 0.00 0.00 0.00 70 1019.8
20260503194446 59 91 0.0 1.0 0.00 0.00 0.00 69 1019.8
20260503194226 59 91 0.0 1.0 0.00 0.00 0.00 68 1019.7
20260503194209 59 91 0.0 1.0 0.00 0.00 0.00 69 1019.8
20260503193447 60 91 0.0 1.0 0.00 0.00 0.00 68 1019.8
20260503193103 60 91 0.0 1.0 0.00 0.00 0.00 68 1019.7
20260503192946 60 91 0.0 1.0 0.00 0.00 0.00 68 1019.7
20260503192717 60 91 0.0 1.0 0.00 0.00 0.00 68 1019.8
20260503192103 60 91 0.0 1.0 0.00 0.00 0.00 67 1019.7
20260503191946 60 91 0.0 1.0 0.00 0.00 0.00 68 1019.7
20260503191445 60 91 0.0 2.0 0.00 0.00 0.00 67 1019.7
20260503191104 60 91 0.0 2.0 0.00 0.00 0.00 67 1019.7
20260503190945 60 91 0.0 2.0 0.00 0.00 0.00 68 1019.7
20260503190445 60 93 0.0 2.0 0.00 0.00 0.00 69 1019.7
20260503190221 61 99 0.0 2.0 0.00 0.00 0.00 68 1019.7
20260503190208 60 98 0.0 2.0 0.00 0.00 0.00 68 1019.6
20260503185446 61 104 0.0 0.0 0.00 0.00 0.00 67 1019.6
20260503185103 61 104 0.0 0.0 0.00 0.00 0.00 68 1019.4
20260503184946 61 104 0.0 0.0 0.00 0.00 0.00 68 1019.4
20260503184445 61 104 0.0 3.0 0.00 0.00 0.00 67 1019.5
20260503184218 61 104 0.0 3.0 0.00 0.00 0.00 65 1019.4
20260503184210 61 104 0.0 3.0 0.00 0.00 0.00 66 1019.5
20260503183716 61 99 0.0 3.0 0.00 0.00 0.00 65 1019.5
20260503183102 61 86 1.0 4.0 0.00 0.00 0.00 64 1019.4
20260503182946 61 79 1.0 4.0 0.00 0.00 0.00 66 1019.4
20260503182446 61 53 1.0 4.0 0.00 0.00 0.00 64 1019.3
20260503182102 62 40 1.0 4.0 0.00 0.00 0.00 64 1019.3
20260503181946 62 28 1.0 4.0 0.00 0.00 0.00 64 1019.3
20260503181446 62 260 0.0 4.0 0.00 0.00 0.00 65 1019.3
20260503181102 62 251 0.0 1.0 0.00 0.00 0.00 68 1019.4
20260503180948 62 251 0.0 1.0 0.00 0.00 0.00 68 1019.4
20260503180447 62 250 0.0 1.0 0.00 0.00 0.00 67 1019.4
20260503175945 62 250 0.0 0.0 0.00 0.00 0.00 68 1019.5
20260503175446 63 250 0.0 0.0 0.00 0.00 0.00 67 1019.5
20260503175104 63 250 0.0 1.0 0.00 0.00 0.00 67 1019.5
20260503174946 63 250 0.0 1.0 0.00 0.00 0.00 66 1019.4
20260503174445 63 250 0.0 2.0 0.00 0.00 0.00 67 1019.4
20260503174104 63 250 0.0 2.0 0.00 0.00 0.00 66 1019.4
20260503173946 63 249 0.0 2.0 0.00 0.00 0.00 66 1019.4
20260503173445 63 248 0.0 2.0 0.00 0.00 0.00 67 1019.3
20260503173102 63 246 0.0 2.0 0.00 0.00 0.00 67 1019.2
20260503172945 63 245 0.0 2.0 0.00 0.00 0.00 66 1019.3
20260503172445 63 244 0.0 2.0 0.00 0.00 0.00 66 1019.2
20260503172103 63 246 0.0 2.0 0.00 0.00 0.00 65 1019.2
20260503171942 63 248 0.0 1.0 0.00 0.00 0.00 65 1019.3
20260503171709 63 248 0.0 1.0 0.00 0.00 0.00 65 1019.1
20260503171219 63 248 0.0 1.0 0.00 0.00 0.00 64 1019.4
20260503171201 63 248 0.0 1.0 0.00 0.00 0.00 64 1019.4
20260503170442 63 253 0.0 1.0 0.00 0.00 0.00 63 1019.4
20260503150939 65 112 0.0 5.0 0.00 0.00 0.00 53 1020.1
20260503150435 65 50 2.0 6.0 0.00 0.00 0.00 53 1020.1
20260503150213 65 4 2.0 6.0 0.00 0.00 0.00 52 1020.2
20260503150156 65 22 2.0 6.0 0.00 0.00 0.00 53 1020.1
20260503131050 65 27 1.0 6.0 0.00 0.00 0.00 53 1020.9
20260503130937 65 33 1.0 6.0 0.00 0.00 0.00 53 1020.8
20260503130436 66 37 1.0 5.0 0.00 0.00 0.00 53 1020.9
20260503120209 66 88 2.0 8.0 0.00 0.00 0.00 52 1021.0
20260503120150 66 94 2.0 8.0 0.00 0.00 0.00 51 1021.0
20260503110702 66 337 2.0 9.0 0.00 0.00 0.00 51 1020.6
20260503090418 63 41 4.0 8.0 0.00 0.00 0.00 57 1020.9
20260503081407 63 144 1.0 2.0 0.00 0.00 0.00 59 1021.2
20260503081045 63 82 0.0 2.0 0.00 0.00 0.00 59 1021.2
20260503080908 63 47 1.0 2.0 0.00 0.00 0.00 57 1021.2
20260503080426 62 144 0.0 2.0 0.00 0.00 0.00 60 1021.0
20260503080422 62 100 0.0 2.0 0.00 0.00 0.00 60 1021.1
20260503080135 62 130 0.0 2.0 0.00 0.00 0.00 59 1021.0
20260503072904 59 218 0.0 2.0 0.00 0.00 0.00 66 1021.1
20260503072405 59 223 1.0 2.0 0.00 0.00 0.00 68 1021.1
20260503072041 59 190 0.0 2.0 0.00 0.00 0.00 69 1021.1
20260503071905 59 168 0.0 2.0 0.00 0.00 0.00 69 1021.1
20260503071403 59 133 0.0 2.0 0.00 0.00 0.00 70 1021.0
20260503071041 59 131 0.0 2.0 0.00 0.00 0.00 69 1020.9
20260503070902 59 131 0.0 2.0 0.00 0.00 0.00 68 1021.1
20260503070402 59 132 0.0 1.0 0.00 0.00 0.00 66 1021.1
20260503055034 57 274 2.0 6.0 0.00 0.00 0.00 66 1020.9
20260503054856 57 294 1.0 3.0 0.00 0.00 0.00 66 1020.9
20260503054358 57 61 0.0 3.0 0.00 0.00 0.00 64 1020.9
20260503054035 57 17 0.0 3.0 0.00 0.00 0.00 63 1020.9
20260503053856 57 355 0.0 5.0 0.00 0.00 0.00 64 1021.0
20260503053625 57 333 0.0 5.0 0.00 0.00 0.00 64 1021.1
20260503053033 57 299 1.0 5.0 0.00 0.00 0.00 65 1021.2
20260503052855 57 283 2.0 5.0 0.00 0.00 0.00 65 1021.2
20260503052355 57 268 2.0 5.0 0.00 0.00 0.00 65 1021.3
20260503052033 57 271 2.0 5.0 0.00 0.00 0.00 63 1021.3
20260503051855 57 270 1.0 5.0 0.00 0.00 0.00 63 1021.3
20260503051356 57 280 2.0 5.0 0.00 0.00 0.00 63 1021.2
20260503051033 57 280 2.0 5.0 0.00 0.00 0.00 63 1021.4
20260503050855 57 285 2.0 5.0 0.00 0.00 0.00 63 1021.4
20260503050355 57 291 1.0 6.0 0.00 0.00 0.00 63 1021.3
20260503050031 56 278 1.0 6.0 0.00 0.00 0.00 64 1021.4
20260503045853 56 273 1.0 6.0 0.00 0.00 0.00 64 1021.3
20260503045351 56 258 1.0 6.0 0.00 0.00 0.00 66 1021.2
20260503045031 56 252 1.0 6.0 0.00 0.00 0.00 66 1021.3
20260503044852 56 230 1.0 6.0 0.00 0.00 0.00 66 1021.3
20260503044350 55 154 0.0 3.0 0.00 0.00 0.00 69 1021.3
20260503044031 55 187 0.0 3.0 0.00 0.00 0.00 68 1021.2
20260503043851 55 223 0.0 4.0 0.00 0.00 0.00 68 1021.3
20260503043349 56 293 0.0 4.0 0.00 0.00 0.00 67 1021.0
20260503043028 56 315 0.0 4.0 0.00 0.00 0.00 67 1021.1
20260503042847 56 316 1.0 4.0 0.00 0.00 0.00 66 1021.1
20260503042613 55 290 1.0 4.0 0.00 0.00 0.00 68 1021.2
20260503042033 55 273 1.0 4.0 0.00 0.00 0.00 68 1021.2
20260503041846 55 290 1.0 4.0 0.00 0.00 0.00 69 1021.3
20260503041346 55 137 1.0 2.0 0.00 0.00 0.00 70 1021.2
20260503041028 55 176 0.0 2.0 0.00 0.00 0.00 69 1021.1
20260503040845 55 216 0.0 2.0 0.00 0.00 0.00 68 1021.2
20260503040345 56 315 0.0 2.0 0.00 0.00 0.00 67 1021.1
20260503040114 56 294 0.0 4.0 0.00 0.00 0.00 65 1021.2
20260503040105 56 312 0.0 3.0 0.00 0.00 0.00 66 1021.2
20260503035341 56 239 0.0 4.0 0.00 0.00 0.00 66 1021.4
20260503035027 56 192 0.0 4.0 0.00 0.00 0.00 66 1021.2
20260503034841 56 185 1.0 4.0 0.00 0.00 0.00 66 1021.2
20260503034341 56 318 1.0 4.0 0.00 0.00 0.00 65 1021.5
20260503034026 56 343 1.0 4.0 0.00 0.00 0.00 64 1021.5
20260503033841 56 352 0.0 2.0 0.00 0.00 0.00 64 1021.5
20260503033342 56 12 0.0 5.0 0.00 0.00 0.00 63 1021.5
20260503033027 56 359 1.0 5.0 0.00 0.00 0.00 64 1021.6
20260503032840 56 347 1.0 5.0 0.00 0.00 0.00 64 1021.6
20260503032340 56 303 1.0 5.0 0.00 0.00 0.00 64 1021.6
20260503032027 56 284 1.0 5.0 0.00 0.00 0.00 64 1021.7
20260503031839 56 284 1.0 5.0 0.00 0.00 0.00 64 1021.8
20260503031340 56 311 0.0 3.0 0.00 0.00 0.00 66 1021.8
20260503031027 56 325 0.0 2.0 0.00 0.00 0.00 65 1021.6
20260503030840 56 325 0.0 3.0 0.00 0.00 0.00 64 1021.6
20260503030339 56 293 0.0 3.0 0.00 0.00 0.00 65 1021.8
20260503030027 55 278 0.0 3.0 0.00 0.00 0.00 65 1021.7
20260503025837 55 267 0.0 3.0 0.00 0.00 0.00 66 1021.8
20260503025339 56 255 1.0 5.0 0.00 0.00 0.00 66 1021.9
20260503025027 56 258 1.0 9.0 0.00 0.00 0.00 65 1021.8
20260503024836 56 264 1.0 9.0 0.00 0.00 0.00 64 1021.8
20260503024336 56 280 1.0 9.0 0.00 0.00 0.00 63 1021.9
20260503024028 57 290 2.0 9.0 0.00 0.00 0.00 63 1021.9
20260503023835 57 300 2.0 10.0 0.00 0.00 0.00 62 1022.3
20260503023336 57 309 1.0 10.0 0.00 0.00 0.00 62 1022.3
20260503023026 56 306 1.0 10.0 0.00 0.00 0.00 63 1022.3
20260503022836 56 296 1.0 10.0 0.00 0.00 0.00 63 1022.3
20260503022336 56 299 2.0 10.0 0.00 0.00 0.00 63 1022.3
20260503022116 56 308 2.0 6.0 0.00 0.00 0.00 63 1022.1
20260503022102 56 306 2.0 10.0 0.00 0.00 0.00 63 1022.3
20260503021338 56 288 2.0 6.0 0.00 0.00 0.00 64 1022.3
20260503021027 56 278 2.0 6.0 0.00 0.00 0.00 64 1022.3
20260503020836 56 282 1.0 6.0 0.00 0.00 0.00 64 1022.1
20260503020336 56 292 1.0 6.0 0.00 0.00 0.00 65 1022.1
20260503020030 56 306 1.0 6.0 0.00 0.00 0.00 64 1022.1
20260503015834 56 310 1.0 6.0 0.00 0.00 0.00 64 1022.3
20260503015332 56 325 0.0 3.0 0.00 0.00 0.00 64 1022.3
20260503015027 56 333 1.0 3.0 0.00 0.00 0.00 63 1022.1
20260503014832 56 331 1.0 3.0 0.00 0.00 0.00 63 1022.1
20260503014330 56 345 1.0 3.0 0.00 0.00 0.00 63 1022.1
20260503014026 56 339 1.0 3.0 0.00 0.00 0.00 64 1022.3
20260503013831 56 330 0.0 3.0 0.00 0.00 0.00 64 1022.7
20260503013332 56 306 1.0 3.0 0.00 0.00 0.00 65 1022.6
20260503013027 56 294 1.0 3.0 0.00 0.00 0.00 65 1022.7
20260503012832 56 288 1.0 3.0 0.00 0.00 0.00 66 1022.6
20260503012331 55 262 1.0 3.0 0.00 0.00 0.00 66 1022.6
20260503012029 56 243 0.0 3.0 0.00 0.00 0.00 67 1022.7
20260503011830 56 240 0.0 3.0 0.00 0.00 0.00 65 1022.7
20260503011331 55 228 0.0 2.0 0.00 0.00 0.00 66 1022.6
20260503011027 55 228 0.0 1.0 0.00 0.00 0.00 67 1022.6
20260503010831 56 229 0.0 2.0 0.00 0.00 0.00 66 1022.7
20260503010605 56 233 0.0 6.0 0.00 0.00 0.00 65 1022.8
20260503010027 56 234 0.0 6.0 0.00 0.00 0.00 64 1022.9
20260503005830 56 239 0.0 6.0 0.00 0.00 0.00 64 1022.9
20260503005330 57 281 0.0 6.0 0.00 0.00 0.00 63 1023.0
20260503005102 57 300 1.0 6.0 0.00 0.00 0.00 61 1022.9
20260503005056 57 308 1.0 6.0 0.00 0.00 0.00 62 1023.0
20260503004559 57 298 2.0 5.0 0.00 0.00 0.00 61 1023.1
20260503004027 57 290 2.0 5.0 0.00 0.00 0.00 61 1023.1
20260503003830 57 298 1.0 5.0 0.00 0.00 0.00 61 1023.5
20260503003603 57 298 1.0 5.0 0.00 0.00 0.00 61 1023.4
20260503003027 57 305 1.0 5.0 0.00 0.00 0.00 61 1023.4
20260503002830 57 303 1.0 5.0 0.00 0.00 0.00 61 1023.4
20260503002555 57 309 2.0 5.0 0.00 0.00 0.00 61 1023.5
20260503002027 57 299 1.0 4.0 0.00 0.00 0.00 61 1023.4
20260503001830 57 291 1.0 4.0 0.00 0.00 0.00 61 1023.5
20260503001552 57 272 0.0 4.0 0.00 0.00 0.00 62 1023.4
20260503001026 57 272 0.0 4.0 0.00 0.00 0.00 61 1023.4
20260503000825 57 274 0.0 5.0 0.00 0.00 0.00 62 1023.5
20260503000325 58 292 0.0 6.0 0.00 0.00 0.00 60 1023.5
20260503000027 58 299 1.0 6.0 0.00 0.00 0.00 60 1023.6
20260502235824 58 302 1.0 6.0 0.00 0.00 0.00 60 1023.7
20260502235324 58 311 2.0 6.0 0.00 0.00 0.00 60 1023.7
20260502235027 58 323 1.0 6.0 0.00 0.00 0.00 61 1023.8
20260502234822 58 332 1.0 6.0 0.00 0.00 0.00 60 1023.8
20260502234322 57 311 1.0 3.0 0.00 0.00 0.00 61 1023.7
20260502234027 57 311 0.0 3.0 0.00 0.00 0.00 62 1023.6
20260502233821 57 315 0.0 3.0 0.00 0.00 0.00 63 1023.7
20260502233322 58 327 0.0 3.0 0.00 0.00 0.00 61 1023.8
20260502233028 58 314 0.0 3.0 0.00 0.00 0.00 60 1023.8
20260502232824 58 297 1.0 3.0 0.00 0.00 0.00 61 1023.8
20260502232323 58 303 1.0 7.0 0.00 0.00 0.00 61 1023.8
20260502232027 58 316 1.0 7.0 0.00 0.00 0.00 60 1023.8
20260502231822 58 326 1.0 7.0 0.00 0.00 0.00 60 1023.9
20260502231321 58 318 1.0 7.0 0.00 0.00 0.00 60 1023.9
20260502231029 58 300 1.0 7.0 0.00 0.00 0.00 60 1023.9
20260502230823 58 282 1.0 7.0 0.00 0.00 0.00 60 1024.1
20260502230321 58 288 1.0 3.0 0.00 0.00 0.00 60 1023.9
20260502230027 58 295 1.0 3.0 0.00 0.00 0.00 60 1023.9
20260502225821 58 309 1.0 3.0 0.00 0.00 0.00 59 1023.9
20260502225321 58 317 1.0 3.0 0.00 0.00 0.00 60 1024.1
20260502225026 59 321 1.0 3.0 0.00 0.00 0.00 59 1024.1
20260502224822 59 324 1.0 3.0 0.00 0.00 0.00 58 1024.1
20260502224321 58 314 1.0 2.0 0.00 0.00 0.00 60 1024.1
20260502224027 58 312 0.0 2.0 0.00 0.00 0.00 61 1024.2
20260502223819 58 312 0.0 4.0 0.00 0.00 0.00 62 1024.2
20260502223320 59 332 0.0 4.0 0.00 0.00 0.00 59 1024.2
20260502223028 58 336 0.0 5.0 0.00 0.00 0.00 60 1024.2
20260502222820 58 338 1.0 5.0 0.00 0.00 0.00 60 1024.2
20260502222553 58 333 1.0 5.0 0.00 0.00 0.00 60 1024.2
20260502222050 58 315 1.0 5.0 0.00 0.00 0.00 61 1024.2
20260502222044 58 329 1.0 5.0 0.00 0.00 0.00 61 1024.3
20260502221339 57 265 0.0 3.0 0.00 0.00 0.00 66 1024.2
20260502221335 58 274 1.0 5.0 0.00 0.00 0.00 62 1024.2
20260502221050 57 265 0.0 3.0 0.00 0.00 0.00 64 1024.3
20260502220316 57 272 0.0 3.0 0.00 0.00 0.00 65 1024.3
20260502220028 57 272 0.0 3.0 0.00 0.00 0.00 66 1024.3
20260502215816 57 270 0.0 3.0 0.00 0.00 0.00 66 1024.3